Location: ?
(35.4554°N, 139.3092°E)
Time: 22:10:45
(UTC+00:00)

Cosmos 2151 Rocket - Pass Details

Date: 21 April 2021
Orbit: 618 x 641 km, 82.5° (Epoch: 10 May)

Event Time Altitude Azimuth Distance (km) Brightness Sun altitude
Rises 18:07:59 0° 353° (N) 2,949 7.4 -21.9°
Reaches altitude 10° 18:10:14 10° 354° (N) 2,038 6.5 -21.5°
Maximum altitude 18:14:46 87° 80° (E) 647 3.6 -20.7°
Enters shadow 18:17:50 20° 173° (S) 1,457 5.2 -20.2°
